Regional Weather Roundup
Issued by NWS Wakefield, VA

Home | Current Version | Previous Version | Graphics & Text | Print | Product List | Glossary On
Versions: 1 2 3 4 5 6 7 8 9 10 11 12 13 14 15 16 17 18 19 20 21 22 23 24 25 26 27 28
000
ASUS41 KAKQ 311310
RWRAKQ

REGIONAL WEATHER ROUNDUP
NATIONAL WEATHER SERVICE WAKEFIELD VA
900 AM EDT FRI OCT 31 2014

Note: "fair" indicates few or no clouds below 12,000 feet with no
significant weather and/or obstructions to visibility. * = Denotes
station may not report precipitation (e.g., rain,snow,etc.),
thunder or fog.

VAZ042-051-052>054-056-311400-
NORTHERN VIRGINIA

CITY           SKY/WX    TMP DP  RH WIND       PRES   REMARKS
WASH NATIONAL  PTSUNNY   50  39  66 NE5       30.01S
DULLES         PTSUNNY   41  39  93 CALM      30.00S
FORT BELVOIR   MOSUNNY   39  38  95 CALM      30.02R
QUANTICO       PTSUNNY   41  37  86 NW7       30.02R
FREDERICKSBRG* PTSUNNY   40  40 100 CALM      30.00R
STAFFORD*      MOSUNNY  N/A N/A N/A CALM      30.04R
WARRENTON      MOSUNNY   34  34 100 CALM      29.99F FOG
CULPEPER*      CLOUDY    39  37  93 CALM      30.01R
MANASSAS*      NOT AVBL
LEESBURG*      CLOUDY    43  43 100 CALM      30.01S
WINCHESTER     CLOUDY    41  34  75 CALM      29.99R
FRONT ROYAL*   SUNNY     37  34  87 S3        29.99R
LURAY*         CLOUDY    37  37 100 SW3       30.00R
$$

VAZ048-049-060>072-079>083-311400-
CENTRAL AND SOUTH CENTRAL VIRGINIA...AND NORTH CENTRAL NORTH CAROLINA

CITY           SKY/WX    TMP DP  RH WIND       PRES   REMARKS
RICHMOND       CLOUDY    47  40  76 N5        29.99R
CHESTERFIELD*  CLOUDY    45  30  57 N3        30.00R
PETERSBURG*    CLOUDY    46  39  77 N3        29.99S
HANOVER        PTSUNNY   43  38  82 CALM      30.00S
TAPPAHANNOCK*  PTSUNNY   44  41  89 CALM      29.99S
CHARLOTTSVILLE CLOUDY    41  37  86 CALM      29.99R
ORANGE*        CLOUDY    43  39  87 CALM      30.01R
LOUISA*        CLOUDY    43  37  81 CALM      29.98R
FARMVILLE*     MOSUNNY   39  39 100 CALM      29.97S
CREWE*         CLOUDY    42  36  80 CALM      29.97F
FORT PICKETT*  CLOUDY    43  38  82 NE7       29.97F
LUNENBURG*     CLOUDY    43  38  82 N5        29.97S
SOUTH HILL*    CLOUDY    45  39  81 CALM      30.02S
LAWRENCEVILLE* CLOUDY    45  40  83 CALM      29.97S
ROANOKE RAPIDS CLOUDY    43  41  93 N5        29.97S
RALEIGH        MOSUNNY   46  38  73 NE8       29.96S
$$

VAZ088>098-311400-
SOUTHEAST VIRGINIA

CITY           SKY/WX    TMP DP  RH WIND       PRES   REMARKS
NORFOLK        CLOUDY    56  40  55 N15       29.94S
VIRGINIA BEACH CLOUDY    56  46  69 N9        29.92F
NORFOLK NAVAL  CLOUDY    58  39  49 NE14      29.95F
WEST POINT*    CLOUDY    48  46  91 CALM      29.99R
NEWPORT NEWS   CLOUDY    53  47  79 N6        29.95S
LANGLEY AFB    CLOUDY    53  46  75 NE7       29.95S
FORT EUSTIS    CLOUDY    50  50  99 VRB5      29.94S
WILLIAMSBURG*  CLOUDY    50  48  93 CALM      29.98S
HR EXEC AP*    CLOUDY    46  45  93 NW3       29.96F
FRANKLIN*      CLOUDY    46 N/A N/A CALM      29.96F
WAKEFIELD      CLOUDY    47  43  86 CALM      29.97R
$$

VAZ020-022-025-037-045-311400-
WEST CENTRAL AND SOUTHWEST VIRGINIA

CITY           SKY/WX    TMP DP  RH WIND       PRES   REMARKS
STAUNTON*      CLOUDY    36  33  89 CALM      30.00S
HOT SPRINGS VA MOSUNNY   36  31  81 SE6       29.90R
LYNCHBURG      SUNNY     44  35  70 N5        29.99S
DANVILLE       SUNNY     45  37  73 N3        29.99R
SOUTH BOSTON*  NOT AVBL
MARTINSVILLE   CLOUDY    40  40 100 CALM      30.01S
ROANOKE        CLOUDY    39  35  86 CALM      30.01R
BLACKSBURG     MOSUNNY   37  37 100 CALM      29.99R FOG
DUBLIN*        PTSUNNY   37  36  98 CALM      29.99R
MARION*        CLOUDY    34  33  94 CALM      29.98S FOG
HILLSVILLE*    CLOUDY    34  34  99 SW5       29.96R FOG
RICHLANDS*     PTSUNNY   40  35  84 CALM      29.94S
WISE*          CLOUDY    39  34  81 CALM      29.96R
ABINGDON*      MOSUNNY   39  37  93 CALM      29.96R
$$

MDZ021>025-VAZ099-100-311400-
SOUTHERN MARYLAND AND THE DELMARVA PENINSULA

CITY           SKY/WX    TMP DP  RH WIND       PRES   REMARKS
PATUXENT RIVER CLOUDY    50  40  68 NE7       29.99S
BAY BRIDGE APT   N/A     46  34  61 NE5       30.00S
LEONARDTOWN    CLOUDY    43  41  93 CALM      30.00R
DOVER          PTSUNNY   46  40  78 N10       29.97S
GEORGETOWN     CLOUDY    45  39  79 CALM      29.99S
EASTON         CLOUDY    45  41  87 NE7       30.03
CAMBRIDGE      CLOUDY    48  39  71 NE3       29.99S
SALISBURY      CLOUDY    48  41  76 NE3       29.99S
OCEAN CITY     CLOUDY    50  41  71 N7        29.98S
WALLOPS ISLAND CLOUDY    48  39  71 N7        29.98S
ACCOMACK*      CLOUDY    46  37  71 N6        29.96S
$$

NCZ012>017-030>032-311400-
EASTERN NORTH CAROLINA

CITY           SKY/WX    TMP DP  RH WIND       PRES   REMARKS
ELIZABETH CITY CLOUDY    57  49  74 N12       29.93S
AHOSKIE*       NOT AVBL
EDENTON*       CLOUDY    50  46  88 N8        29.92S
CURRITUCK*     CLOUDY    53  47  81 N6        29.92F HAZE
KILL DEVIL HLS CLOUDY    60  45  57 NE7       29.88F
MANTEO         CLOUDY    59  46  60 NE14      29.90S
CAPE HATTERAS  LGT RAIN  59  51  75 NE10G22   29.87R
TARBORO*       PTSUNNY   47  44  90 CALM      29.96S
GOLDSBORO      PTSUNNY   49  48  96 NE9       29.92S
WASHINGTON     CLOUDY    49  45  87 N8        29.92F
GREENVILLE     PTSUNNY   48  45  87 N6        29.95F
NEW BERN       PTSUNNY   53  47  79 N8        29.91F
WILMINGTON     SUNNY     53  47  79 N9        29.91R
$$

VAZ048-311400-
ELSEWHERE

CITY           SKY/WX    TMP DP  RH WIND       PRES   REMARKS
HARRISBURG PA  CLOUDY    46  36  68 SE8       30.01R
BALTIMORE      PTSUNNY   49  38  65 E8        30.00S
ANNAPOLIS      CLOUDY    49  38  65 NE7       30.00R
ANDREWS AFB    MOSUNNY   43  37  80 NE6       30.00R
WILMINGTON DE  SUNNY     39  34  82 N3        30.02S
PHILADELPHIA   PTSUNNY   43  34  70 N7        30.02S
WILDWOOD NJ*   PTSUNNY   45  34  65 N6        30.00F
ATLANTIC CITY  PTSUNNY   40  36  86 N6        30.00S
HENDERSON NC   SUNNY     44  39  83 NE3       29.97S
GREENSBORO     PTSUNNY   43  35  73 N6        29.97R
ROCKY MOUNT    PTSUNNY   48  43  82 N8        29.95S
FAYETTEVILLE   SUNNY     49  44  83 N10       29.94R
CHARLOTTE      MOSUNNY   45  38  76 N9        29.97R
$$

VAZ100-311400-
MARINE

STATION/POSITION TIME  TEMP    WIND        PRES    WAVE   SWELL
                       AIR SEA DIR/SP/G            HT/PER HT/PER
                 (UTC) (F)     (DEG/KT/KT) (MB)    (FT/S) (FT/S)
44066 TX TWR #4  1300   56 64   30/  6/  8 1014.6R   2/ 7   2/ 7
CAPE MAY NJ      1300   46 63   30/  5/  9 1015.2S
LEWES DE         1300   51 56   30/ 13/ 16 1015.2F
15NM E FENWICK I 1300   54 63              1014.7R   3/ 4
OCEAN-CITY-INLET 1300   53 61   40/  6/ 10 1014.5F
WACHAPREAGUE VA  1300   49 60  360/  5/  8 1014.5F
THOMAS POINT MD  1300   49 60   50/  7/  9 1017.2R
GOOSES REEF MD   1300   51      90/ 10/ 12 1015.8S
COVE POINT MD    1300   49      90/ 13/ 16 1015.2R
SOLOMONS ISLAND  1300      62                N/A
BISHOPS HEAD MD  1300   50 57   50/ 12/ 15 1014.5S
PINEY POINT MD   1300           70/  6/  7   N/A
POTOMAC MD       1300   54      80/ 12/ 14 1014.3R
CAMBRIDGE MD     1300   49 59   60/ 12/ 14 1015.0S
LEWISETTA VA     1300   54 60   80/ 11/ 14 1014.8R
RAPPAHANNOCK LGT 1300           30/ 16/ 18 1015.0F
STINGRAY PT      1300   56      60/ 14/ 16 1015.3S
YORK RVR RNG VA  1300   56      60/ 13/ 15 1013.8F
YORKTOWN VA      1300   53 63   20/  8/  9 1014.2F
JAMESTOWN VA     1300   49      40/  4/  6   N/A
DOMINION TERM VA 1300   52      20/  7/  9 1013.9F
KIPTOPEKE VA     1300      67   30/  6/  8   N/A
CHES BAY BRIDGE  1300   56 63   10/ 13/ 15 1013.5S
CHESAPEAKE LGHT  1200   58      20/ 14/ 16 1014.0F
WILLOUBY STN VA  1300   56      30/ 14/ 15 1012.4F
S CRANEY ISL VA  1300           10/ 11/ 13 1013.3F
CAPE HENRY BUOY  1300      65                N/A     3/ 5
1ST LANDING BUOY 1300   57      20/ 14/ 17 1013.6S
CAPE CHARLES BUO 1300      65                N/A     3/ 4   2/ 7
64NM E OF VA BCH 1300   61 66   30/ 16/ 19 1012.2F   3/ 4   2/ 7
DUCK PIER NC     1300   60 65   20/ 19/ 22 1011.8R
44100 DUCK FRF   1300      67                N/A     4/ 5
OREGON INLET NC  1300   61 66   10/ 15/ 20 1012.0R
HATTERAS NC      1300   61 65   30/ 16/ 21 1011.9R
DIAMOND SHLS NC  1300   64     360/ 21/ 25 1010.3R   6/ 6   2/11
CAPE LOOKOUT NC  1200   60      20/ 17/ 22 1011.0F
$$



USA.gov is the U.S. government's official web portal to all federal, state and local government web resources and services.